Weather History for Mackall AAF, NC

Change the Weather History Date:

Friday, February 21, 2014

  Actual Average Record
Temperature  
Mean Temperature 56 °F -  
Max Temperature 69 °F 52 °F 77 °F (2011)
Min Temperature 41 °F 34 °F 20 °F (2009)
Degree Days  
Heating Degree Days 10    
Growing Degree Days 6 (Base 50)    
Moisture  
Dew Point 54 °F    
Average Humidity 90    
Maximum Humidity 100    
Minimum Humidity 68    
Precipitation  
Precipitation 0.37 in - - ()
Sea Level Pressure  
Sea Level Pressure 29.96 in    
Wind  
Wind Speed 13 mph (WSW)    
Max Wind Speed 26 mph    
Max Gust Speed 40 mph    
Visibility 8 miles    
Events Fog , Rain , Thunderstorm    
Averages and records for this station are not official NWS values.
T = Trace of Precipitation, MM = Missing Value Source: NWS Daily Summary

Daily Weather History Graph

Daily Weather History Graph

Search for Another Location

Airport:

Trip Planner

Search our weather history database for the weather conditions in past years. The results will help you decide how hot, cold, wet, or windy it might be!

Date:

Astronomy

Feb. 21, 2014 Rise Set
Actual Time 6:57 AM EST 6:06 PM EST
Civil Twilight 6:31 AM EST 6:32 PM EST
Nautical Twilight 6:02 AM EST 7:01 PM EST
Astronomical Twilight 5:32 AM EST 7:30 PM EST
Moon No Moon Rise 10:35 AM EST (2/21)
Length of Visible Light 12h 00m
Length of Day
11h 09m
Waning Gibbous, 61% of the Moon is Illuminated
Feb 21
Waning Gibbous
Feb 22
Last Quarter
Mar 1
New
Mar 8
First Quarter
Mar 16
Full

Hourly Weather History & Observations

Time (EST) Temp. Windchill Dew Point Humidity Pressure Visibility Wind Dir Wind Speed Gust Speed Precip Events Conditions
12:01 AM 66.2 °F - 60.8 °F 83% 30.03 in 12.0 mi South 13.8 mph 23.0 mph N/A   Mostly Cloudy
12:11 AM 66.2 °F - 60.8 °F 83% 30.02 in 12.0 mi South 13.8 mph 20.7 mph N/A   Mostly Cloudy
12:31 AM 66.2 °F - 62.6 °F 88% 30.01 in 12.0 mi South 19.6 mph 27.6 mph N/A   Mostly Cloudy
12:56 AM 66.2 °F - 62.2 °F 87% 30.00 in 12.0 mi South 17.3 mph 27.6 mph N/A   Mostly Cloudy
1:56 AM 65.7 °F - 62.1 °F 88% 30.00 in 12.0 mi SSW 13.8 mph 24.2 mph N/A   Mostly Cloudy
2:56 AM 65.7 °F - 61.9 °F 88% 29.99 in 12.0 mi SSW 16.1 mph 24.2 mph N/A   Overcast
3:56 AM 65.8 °F - 61.9 °F 87% 29.97 in 12.0 mi South 17.3 mph 25.3 mph N/A   Mostly Cloudy
4:56 AM 65.7 °F - 61.7 °F 87% 29.94 in 12.0 mi South 17.3 mph 26.5 mph N/A   Mostly Cloudy
5:56 AM 65.8 °F - 61.3 °F 85% 29.93 in 12.0 mi South 16.1 mph 24.2 mph N/A   Mostly Cloudy
6:56 AM 65.8 °F - 61.9 °F 87% 29.92 in 12.0 mi South 13.8 mph 23.0 mph N/A   Overcast
7:56 AM 66.4 °F - 62.2 °F 86% 29.92 in 12.0 mi South 17.3 mph 31.1 mph N/A   Overcast
8:56 AM 67.5 °F - 62.6 °F 84% 29.92 in 12.0 mi South 16.1 mph 28.8 mph N/A   Mostly Cloudy
9:36 AM 68.0 °F - 62.6 °F 83% 29.92 in 12.0 mi South 18.4 mph 29.9 mph N/A   Mostly Cloudy
9:56 AM 68.5 °F - 62.6 °F 81% 29.91 in 12.0 mi South 18.4 mph 27.6 mph N/A   Mostly Cloudy
10:56 AM 69.6 °F - 62.4 °F 78% 29.90 in 12.0 mi SSW 17.3 mph 24.2 mph N/A   Mostly Cloudy
10:57 AM 69.8 °F - 62.6 °F 78% 29.90 in 12.0 mi SSW 18.4 mph 24.2 mph N/A Rain Light Rain
11:08 AM 69.8 °F - 62.6 °F 78% 29.89 in 12.0 mi South 18.4 mph 24.2 mph N/A Rain , Thunderstorm Light Thunderstorms and Rain
11:27 AM 68.0 °F - 64.4 °F 88% 29.90 in 8.0 mi WSW 16.1 mph 20.7 mph N/A Rain , Thunderstorm Thunderstorms and Rain
11:32 AM 66.2 °F - 59.0 °F 78% 29.92 in 6.0 mi West 25.3 mph 39.1 mph N/A Rain , Thunderstorm Heavy Thunderstorms and Rain
11:43 AM 60.8 °F - 59.0 °F 94% 29.92 in 3.0 mi WSW 26.5 mph 40.3 mph N/A Rain Heavy Rain
11:52 AM 60.8 °F - 59.0 °F 94% 29.89 in 6.0 mi WSW 16.1 mph 31.1 mph N/A Rain , Thunderstorm Heavy Thunderstorms and Rain
11:56 AM 60.8 °F - 59.0 °F 94% 29.90 in 8.0 mi WSW 17.3 mph 25.3 mph 0.30 in Rain , Thunderstorm Thunderstorms and Rain
12:06 PM 60.8 °F - 59.0 °F 94% 29.89 in 12.0 mi SW 15.0 mph 24.2 mph N/A Rain , Thunderstorm Thunderstorms and Rain
12:08 PM 60.8 °F - 59.0 °F 94% 29.90 in 12.0 mi SW 18.4 mph 27.6 mph N/A Rain , Thunderstorm Rain
12:26 PM 60.8 °F - 59.0 °F 94% 29.84 in 12.0 mi South 12.7 mph 24.2 mph N/A Rain , Thunderstorm Rain
12:39 PM 60.8 °F - 59.0 °F 94% 29.85 in 12.0 mi West 16.1 mph 23.0 mph N/A Rain Light Rain
12:46 PM 62.6 °F - 59.0 °F 88% 29.85 in 12.0 mi WSW 12.7 mph 23.0 mph N/A   Scattered Clouds
12:56 PM 62.1 °F - 58.8 °F 89% 29.86 in 12.0 mi SSW 10.4 mph - 0.07 in   Partly Cloudy
1:56 PM 64.6 °F - 60.1 °F 85% 29.86 in 12.0 mi WSW 20.7 mph 28.8 mph N/A   Mostly Cloudy
2:41 PM 66.2 °F - 60.8 °F 83% 29.85 in 12.0 mi WSW 13.8 mph 21.9 mph N/A   Mostly Cloudy
2:56 PM 66.0 °F - 61.0 °F 84% 29.85 in 12.0 mi SW 15.0 mph 23.0 mph N/A   Mostly Cloudy
3:36 PM 68.0 °F - 59.0 °F 73% 29.85 in 12.0 mi WSW 18.4 mph 26.5 mph N/A   Mostly Cloudy
3:56 PM 68.2 °F - 58.1 °F 70% 29.85 in 12.0 mi WSW 19.6 mph 25.3 mph N/A   Mostly Cloudy
4:51 PM 68.0 °F - 57.2 °F 68% 29.87 in 12.0 mi WSW 9.2 mph - N/A   Mostly Cloudy
4:56 PM 67.3 °F - 57.7 °F 71% 29.87 in 12.0 mi WSW 11.5 mph - N/A   Mostly Cloudy
5:56 PM 61.9 °F - 52.5 °F 71% 29.93 in 12.0 mi NNW 10.4 mph 18.4 mph N/A   Scattered Clouds
6:56 PM 56.7 °F - 51.4 °F 83% 29.98 in 12.0 mi North 1.2 mph - N/A   Clear
7:56 PM 51.6 °F - 49.3 °F 92% 30.00 in 12.0 mi NW 1.2 mph - N/A   Partly Cloudy
8:56 PM 48.0 °F - 47.3 °F 97% 30.01 in 12.0 mi North 1.2 mph - N/A   Clear
9:20 PM 46.4 °F 45.2 °F 46.4 °F 100% 30.00 in 2.5 mi NNE 3.5 mph - N/A   Partly Cloudy
9:25 PM 48.2 °F - 48.2 °F 100% 30.00 in 1.1 mi NNW 2.3 mph - N/A   Partly Cloudy
9:30 PM 48.2 °F - 46.4 °F 93% 30.00 in 0.9 mi NW 2.3 mph - N/A Fog Fog
9:35 PM 46.4 °F - 46.4 °F 100% 30.01 in 1.1 mi West 2.3 mph - N/A Fog Fog
9:40 PM 46.4 °F - 44.6 °F 93% 30.01 in 1.8 mi West 2.3 mph - N/A   Partly Cloudy
9:45 PM 46.4 °F - 46.4 °F 100% 30.01 in 2.8 mi North 1.2 mph - N/A Fog Patches of Fog
9:51 PM 46.4 °F - 46.4 °F 100% 30.01 in 0.6 mi NW 2.3 mph - N/A Fog Patches of Fog
9:56 PM 46.9 °F - 46.2 °F 97% 30.03 in 0.4 mi NW 1.2 mph - N/A Fog Patches of Fog
10:01 PM 46.4 °F - 46.4 °F 100% 30.02 in 0.5 mi NNW 1.2 mph - N/A Fog Patches of Fog
10:11 PM 44.6 °F - 44.6 °F 100% 30.02 in 0.6 mi North 2.3 mph - N/A Fog Fog
10:26 PM 44.6 °F - 42.8 °F 93% 30.03 in 0.6 mi NW 2.3 mph - N/A Fog Fog
10:31 PM 44.6 °F 43.1 °F 44.6 °F 100% 30.03 in 1.4 mi NNW 3.5 mph - N/A   Scattered Clouds
10:36 PM 44.6 °F 43.1 °F 44.6 °F 100% 30.03 in 3.0 mi North 3.5 mph - N/A   Scattered Clouds
10:41 PM 44.6 °F 43.1 °F 44.6 °F 100% 30.03 in 0.9 mi NNW 3.5 mph - N/A Fog Fog
10:51 PM 44.6 °F - 42.8 °F 93% 30.04 in 3.0 mi NW 2.3 mph - N/A   Clear
10:56 PM 43.5 °F - 43.3 °F 99% 30.05 in 9.0 mi Variable 2.3 mph - N/A   Clear
11:00 PM 44.6 °F 42.2 °F 44.6 °F 100% 30.05 in 11.0 mi SW 4.6 mph - N/A   Partly Cloudy
11:25 PM 44.6 °F - 42.8 °F 93% 30.05 in 1.1 mi West 2.3 mph - N/A Fog Patches of Fog
11:30 PM 42.8 °F - 42.8 °F 100% 30.05 in 0.8 mi WNW 2.3 mph - N/A Fog Fog
11:36 PM 42.8 °F - 42.8 °F 100% 30.05 in 1.1 mi WNW 1.2 mph - N/A   Clear
11:41 PM 42.8 °F - 42.8 °F 100% 30.05 in 1.5 mi West 2.3 mph - N/A   Clear
11:45 PM 42.8 °F - 41.0 °F 93% 30.05 in 1.0 mi Variable 1.2 mph - N/A   Partly Cloudy
11:50 PM 42.8 °F - 42.8 °F 100% 30.05 in 0.5 mi Calm Calm - N/A Fog Fog
11:56 PM 41.9 °F - 41.4 °F 98% 30.06 in 0.5 mi Variable 1.2 mph - N/A Fog Fog